Stations météo

réclame
Mon MeteoGroup
Büchel (Flugplatz), Allemagne (10613): Température de l'air & dewpoint: 09.09.2019 12:00:00 - 15.09.2019 12:00:00 (CEST)Büchel (Flugplatz), Allemagne (10613): Vitesse du vent: 09.09.2019 12:00:00 - 15.09.2019 12:00:00 (CEST)Büchel (Flugplatz), Allemagne (10613): Direction du vent: 09.09.2019 12:00:00 - 15.09.2019 12:00:00 (CEST)Büchel (Flugplatz), Allemagne (10613): reduced air pressure: 09.09.2019 12:00:00 - 15.09.2019 12:00:00 (CEST)Büchel (Flugplatz), Allemagne (10613): visibility: 09.09.2019 12:00:00 - 15.09.2019 12:00:00 (CEST)
Date & Time tt [°C] td [°C] ff [km/h] ff [knt] dd ppp [hPa] vv [km]
15.09.2019 12:00:00 19,7 12,0 11 6 SW 1023,8 14
15.09.2019 11:00:00 17,7 11,6 11 6 WSW 1024,5 11
15.09.2019 10:00:00 15,7 10,3 7 4 W 1025,1 17
15.09.2019 09:00:00 14,3 8,8 7 4 W 1025,4 17
15.09.2019 08:00:00 12,9 7,7 7 4 W 1025,8 18
15.09.2019 07:00:00 12,2 7,0 7 4 WNW 1025,8 19
15.09.2019 06:00:00 11,9 6,3 7 4 WNW 1025,8 14
15.09.2019 05:00:00 12,6 6,5 4 2 SW 1026,2 13
15.09.2019 04:00:00 13,4 5,9 4 2 SE 1026,4 16
15.09.2019 03:00:00 13,6 5,6 4 2 E 1026,8 15
15.09.2019 02:00:00 14,5 5,8 7 4 E 1027,2 15
15.09.2019 01:00:00 14,4 5,7 11 6 NNE 1027,8 16
15.09.2019 00:00:00 14,7 7,0 11 6 NNE 1028,3 15
14.09.2019 23:00:00 14,0 7,5 7 4 ESE 1028,5 11
14.09.2019 22:00:00 15,2 7,3 7 4 NNE 1028,7 11
14.09.2019 21:00:00 16,1 6,3 11 6 NNE 1029,1 15
14.09.2019 20:00:00 17,2 5,6 7 4 NE 1028,6 22
14.09.2019 19:00:00 18,6 4,8 11 6 NE 1028,5 16
14.09.2019 18:00:00 19,2 6,2 11 6 ENE 1028,6 14
14.09.2019 17:00:00 19,5 7,3 14 8 ENE 1029,1 12
14.09.2019 16:00:00 18,9 8,0 11 6 NE 1029,5 12
14.09.2019 15:00:00 18,5 9,0 11 6 NE 1030,2 13
14.09.2019 14:00:00 17,6 9,2 11 6 ENE 1031,2 14
14.09.2019 13:00:00 16,8 9,2 14 8 E 1032,0 12
14.09.2019 12:00:00 15,9 9,5 14 8 ENE 1032,5 12
14.09.2019 11:00:00 14,8 9,5 14 8 ENE 1032,8 12
14.09.2019 10:00:00 12,7 8,9 14 8 ENE 1033,1 15
14.09.2019 09:00:00 11,4 8,4 14 8 E 1033,7 15
14.09.2019 08:00:00 10,5 8,9 14 8 ENE 1033,9 15
14.09.2019 07:00:00 10,4 9,4 18 10 NE 1033,8 13
14.09.2019 06:00:00 11,1 10,1 14 8 NE 1033,4 11
14.09.2019 05:00:00 11,4 10,1 11 6 ENE 1033,7 12
14.09.2019 04:00:00 12,2 10,3 11 6 ENE 1033,7 12
14.09.2019 03:00:00 13,1 10,8 11 6 NNE 1033,5 12
14.09.2019 02:00:00 13,6 11,0 18 10 NE 1033,4 12
14.09.2019 01:00:00 14,4 11,2 14 8 NNE 1033,6 12
14.09.2019 00:00:00 14,5 11,7 11 6 NNE 1033,6 11
13.09.2019 23:00:00 14,7 12,4 11 6 NNE 1033,4 11
13.09.2019 22:00:00 15,2 12,5 11 6 NNE 1033,5 12
13.09.2019 21:00:00 15,5 13,0 11 6 N 1033,2 12
13.09.2019 20:00:00 16,2 13,3 11 6 ENE 1032,4 17
13.09.2019 19:00:00 18,1 12,3 11 6 ENE 1031,9 15
13.09.2019 18:00:00 18,3 12,4 11 6 NNE 1031,9 18
13.09.2019 17:00:00 18,2 13,0 14 8 NNE 1031,9 17
13.09.2019 16:00:00 18,3 13,7 18 10 N 1031,9 20
13.09.2019 15:00:00 19,7 12,8 11 6 W 1031,5 19
13.09.2019 14:00:00 18,6 13,2 11 6 W 1031,9 17
13.09.2019 13:00:00 17,7 12,7 7 4 WSW 1032,1 30
13.09.2019 12:00:00 17,3 12,8 11 6 W 1032,1 30
13.09.2019 11:00:00 16,2 13,0 11 6 W 1032,3 30
13.09.2019 10:00:00 15,1 14,0 7 4 WSW 1032,0 30
13.09.2019 09:00:00 14,7 13,8 11 6 SSW 1031,6 30
13.09.2019 08:00:00 14,2 13,2 7 4 SW 1031,3 30
13.09.2019 07:00:00 13,9 13,0 7 4 S 1031,2 20
13.09.2019 06:00:00 14,3 13,2 7 4 W 1030,7 20
13.09.2019 05:00:00 13,6 12,9 8 4 WSW 1030,5 10
13.09.2019 04:00:00 14,1 13,2 11 6 WSW 1030,4 10
13.09.2019 03:00:00 14,1 12,9 11 6 WSW 1030,5 12
13.09.2019 02:00:00 14,6 13,0 11 6 WSW 1030,7 12
13.09.2019 01:00:00 14,0 12,3 7 4 W 1031,0 12
13.09.2019 00:00:00 14,9 12,3 7 4 W 1030,7 11
12.09.2019 23:00:00 15,7 12,3 7 4 W 1030,6 12
12.09.2019 22:00:00 16,5 12,0 8 4 W 1030,5 10
12.09.2019 21:00:00 17,3 12,2 7 4 W 1030,4 40
12.09.2019 20:00:00 18,3 12,5 11 6 W 1029,6 40
12.09.2019 19:00:00 19,7 13,5 11 6 SW 1028,8 40
12.09.2019 18:00:00 20,2 13,0 11 6 WSW 1028,7 40
12.09.2019 17:00:00 20,1 12,9 18 10 WSW 1028,7 40
12.09.2019 16:00:00 19,8 13,6 22 12 SW 1028,9 40
12.09.2019 15:00:00 19,7 14,4 11 6 SW 1029,0 40
12.09.2019 14:00:00 18,3 13,9 18 10 WSW 1029,5 40
12.09.2019 13:00:00 17,2 14,6 14 8 WSW 1029,5 25
12.09.2019 12:00:00 15,9 14,4 14 8 SW 1029,8 20
12.09.2019 11:00:00 14,6 14,1 13 7 SW 1029,5 8
12.09.2019 10:00:00 13,6 13,1 11 6 SW 1029,3 0,6
12.09.2019 09:00:00 13,3 12,6 13 7 SW 1028,8 7
12.09.2019 08:00:00 13,1 11,9 11 6 WSW 1028,3 12
12.09.2019 07:00:00 12,9 11,1 11 6 WSW 1027,8 20
12.09.2019 06:00:00 12,7 11,1 14 8 WSW 1027,4 30
12.09.2019 05:00:00 13,4 10,1 18 10 SW 1027,0 16
12.09.2019 04:00:00 14,0 9,3 11 6 WSW 1027,0 18
12.09.2019 03:00:00 13,9 9,1 14 8 WSW 1026,5 16
12.09.2019 02:00:00 14,0 9,1 14 8 WSW 1026,1 16
12.09.2019 01:00:00 14,0 8,5 14 8 WSW 1026,1 22
12.09.2019 00:00:00 14,7 8,2 14 8 WSW 1025,6 23
11.09.2019 23:00:00 14,8 8,6 14 8 WSW 1025,7 22
11.09.2019 22:00:00 14,3 9,0 13 7 WSW 1025,3 10
11.09.2019 21:00:00 14,5 8,7 18 10 WSW 1024,9 40
11.09.2019 20:00:00 14,7 8,1 18 10 WSW 1024,2 40
11.09.2019 19:00:00 14,9 7,8 18 10 SW 1024,2 40
11.09.2019 18:00:00 15,1 8,0 14 8 SW 1023,9 40
11.09.2019 17:00:00 16,0 7,1 22 12 WSW 1023,4 40
11.09.2019 16:00:00 16,6 7,7 22 12 WSW 1023,2 40
11.09.2019 15:00:00 16,9 7,4 18 10 WSW 1023,0 40
11.09.2019 14:00:00 16,9 7,0 22 12 WSW 1022,9 40
11.09.2019 13:00:00 17,2 6,6 22 12 SW 1022,8 40
11.09.2019 12:00:00 16,3 6,9 18 10 SW 1023,2 40
11.09.2019 11:00:00 14,4 6,8 14 8 WSW 1023,6 40
11.09.2019 10:00:00 12,1 5,6 11 6 W 1023,7 40
11.09.2019 09:00:00 10,6 4,6 11 6 WSW 1023,6 40
11.09.2019 08:00:00 10,0 3,9 7 4 W 1023,3 40
11.09.2019 07:00:00 10,3 3,7 7 4 SW 1023,0 40
11.09.2019 06:00:00 10,7 3,6 7 4 WSW 1022,3 30
11.09.2019 05:00:00 10,8 3,7 5 3 W 1022,2 10
11.09.2019 04:00:00 10,4 3,9 7 4 W 1022,3 20
11.09.2019 03:00:00 10,9 3,9 4 2 SW 1022,2 22
11.09.2019 02:00:00 12,2 3,7 4 2 NE 1021,7 24
11.09.2019 01:00:00 10,8 4,1 4 2 NNE 1021,8 22
11.09.2019 00:00:00 11,6 4,4 7 4 N 1022,0 24
10.09.2019 23:00:00 11,6 4,4 7 4 N 1021,8 23
10.09.2019 22:00:00 12,8 4,1 7 4 NE 1021,0 50
10.09.2019 21:00:00 12,7 4,7 11 6 NE 1020,5 50
10.09.2019 20:00:00 13,9 6,5 11 6 ENE 1019,5 50
10.09.2019 19:00:00 15,7 6,5 11 6 ENE 1018,6 50
10.09.2019 18:00:00 16,8 4,6 11 6 ENE 1018,1 50
10.09.2019 17:00:00 16,2 2,8 7 4 W 1018,1 50
10.09.2019 16:00:00 16,7 1,9 11 6 NW 1017,8 50
10.09.2019 15:00:00 16,9 3,3 4 2 SSE 1017,7 50
10.09.2019 14:00:00 14,9 4,0 4 2 N 1018,1 50
10.09.2019 13:00:00 14,4 4,5 7 4 NNW 1018,1 40
10.09.2019 12:00:00 15,0 5,5 4 2 NE 1017,7 40
10.09.2019 11:00:00 13,6 3,7 7 4 NNW 1017,7 40
10.09.2019 10:00:00 12,4 6,9 4 2 WNW 1017,7 40
10.09.2019 09:00:00 10,5 6,0 7 4 W 1017,3 40
10.09.2019 08:00:00 9,1 6,0 7 4 WNW 1017,0 40
10.09.2019 07:00:00 7,8 6,2 7 4 WNW 1016,9 40
10.09.2019 06:00:00 8,3 6,9 7 4 WNW 1016,7 40
10.09.2019 05:00:00 7,9 6,8 7 4 WNW 1016,5 13
10.09.2019 04:00:00 8,1 7,3 7 4 WNW 1016,4 14
10.09.2019 03:00:00 8,2 7,1 0 0 N 1016,3 14
10.09.2019 02:00:00 8,9 7,4 4 2 E 1016,1 16
10.09.2019 01:00:00 9,2 7,3 7 4 E 1016,1 18
10.09.2019 00:00:00 9,3 7,9 7 4 ENE 1016,0 19
09.09.2019 23:00:00 9,5 7,3 7 4 NE 1015,9 20
09.09.2019 22:00:00 10,5 7,8 11 6 E 1015,8 25
09.09.2019 21:00:00 10,6 8,0 7 4 E 1015,4 25
09.09.2019 20:00:00 11,3 8,6 7 4 E 1014,9 25
09.09.2019 19:00:00 12,2 8,7 7 4 ENE 1014,6 25
09.09.2019 18:00:00 12,6 8,9 11 6 E 1014,6 25
09.09.2019 17:00:00 12,5 8,6 7 4 E 1014,6 25
09.09.2019 16:00:00 11,9 8,9 11 6 E 1015,2 25
09.09.2019 15:00:00 12,1 8,9 14 8 E 1015,4 25
09.09.2019 14:00:00 11,8 7,5 11 6 ESE 1015,9 25
09.09.2019 13:00:00 13,5 5,4 4 2 W 1015,4 25
09.09.2019 12:00:00 12,8 7,1 7 4 NW 1015,9 25

tt = Température de l'air
td = dewpoint
ff = Vitesse du vent
dd = Direction du vent
ppp = reduced air pressure
vv = visibility

stations d'obs. à proximité